Hourly Data Report for October 10, 2013

All times are specified in Local Standard Time (LST). Add 1 hour to adjust for Daylight Saving Time where and when it is observed.

SAINT JOHN A
NEW BRUNSWICK

45°18'58.000" N
65°53'24.000" W
108.80 m
8104901
71609
YSJ

Download Data

Hourly Data (October 2013)
Hourly Data Report for October 10, 2013
Temp Definition
°C
Dew Point Temp Definition
°C
Rel Hum Definition
%
Wind Dir Definition
10's deg

Wind Spd Definition
km/h
Visibility Definition
km
Stn Press Definition
kPa
Hmdx Definition


Wind Chill Definition


Weather Definition


TIME
00:00 Legend Double Dagger 1.6 1.2 97 14 2 24.1 101.42     LegendNANA
01:00 Legend Double Dagger 0.5 0.4 99 3 4 24.1 101.40     LegendNANA
02:00 Legend Double Dagger 0.0 -0.1 99 10 3 24.1 101.38   -1 Clear
03:00 Legend Double Dagger -0.2 -0.3 99 8 1 24.1 101.35   -1 LegendNANA
04:00 Legend Double Dagger -0.4 -0.5 99 18 1 24.1 101.35   -1 LegendNANA
05:00 Legend Double Dagger 0.1 -0.3 97 17 2 24.1 101.32     Clear
06:00 Legend Double Dagger -0.9 -1.2 98 4 1 24.1 101.32   -1 LegendNANA
07:00 Legend Double Dagger 0.1 -0.2 98 19 3 24.1 101.32     LegendNANA
08:00 Legend Double Dagger 8.4 6.9 90 22 13 24.1 101.35     Mostly Cloudy
09:00 Legend Double Dagger 11.5 6.1 69 23 13 24.1 101.34     LegendNANA
10:00 Legend Double Dagger 14.5 5.9 56 26 15 24.1 101.27     LegendNANA
11:00 Legend Double Dagger 15.4 6.0 53 25 19 24.1 101.22     Mostly Cloudy
12:00 Legend Double Dagger 15.4 6.8 56 21 20 24.1 101.19     LegendNANA
13:00 Legend Double Dagger 15.9 6.4 53 22 18 24.1 101.14     LegendNANA
14:00 Legend Double Dagger 16.0 8.8 62 21 22 24.1 101.12     Mostly Cloudy
15:00 Legend Double Dagger 14.8 8.1 64 21 22 24.1 101.08     LegendNANA
16:00 Legend Double Dagger 14.8 7.4 61 22 19 24.1 101.04     LegendNANA
17:00 Legend Double Dagger 12.4 7.3 71 22 15 24.1 101.03     Mostly Cloudy
18:00 Legend Double Dagger 10.2 7.8 85 23 11 24.1 101.00     LegendNANA
19:00 Legend Double Dagger 9.2 8.0 92 22 17 24.1 100.99     LegendNANA
20:00 Legend Double Dagger 7.3 6.3 93 19 4 24.1 100.99     Mainly Clear
21:00 Legend Double Dagger 4.2 3.8 97 6 1 24.1 101.00     LegendNANA
22:00 Legend Double Dagger 3.6 3.0 96 23 3 24.1 100.98     LegendNANA
23:00 Legend Double Dagger 2.5 2.1 97 7 3 24.1 100.94     Clear

Notes on Data Quality.

Legend

  • E = Estimated
  • M = Missing
  • NA = Not Available
  • ‡ = Partner data that is not subject to review by the National Climate Archives
Date modified: